RH
31 36 41 38 38 37 38 41 52 63 67 67 65 69 85 90 87 86 88 95 95 87 78 88 93 92 75 43 30 28 26 24 24 24 25 22 18 19 20 21 23 23 21 21 19 17 17
25 31 38 45 44 46 44 45 47 50 59 61 61 71 93 98 98 94 87 89 82 81 84 89 92 78 57 38 29 28 25 25 27 25 25 22 17 17 18 19 18 17 18 17 16 15 15
24 26 31 40 48 50 49 49 51 47 54 51 58 73 92 96 90 97 89 84 80 77 81 85 81 64 42 34 31 31 27 27 28 26 25 22 15 15 15 15 16 17 17 15 15 15 14
27 25 26 30 39 49 56 54 51 50 49 48 55 64 77 80 83 79 72 69 70 66 68 67 67 52 38 35 35 33 31 31 28 27 24 19 15 13 14 15 15 16 14 14 15 15 15
34 31 28 27 29 40 50 58 57 54 52 48 52 54 64 68 72 64 65 61 60 62 56 61 53 41 37 36 38 37 34 30 28 26 23 18 14 15 15 15 15 15 13 13 14 16 16
35 37 36 30 27 28 42 52 56 54 53 50 52 50 53 59 61 63 60 59 51 54 59 54 44 37 36 41 38 36 34 30 28 25 22 17 15 16 16 17 17 15 13 14 13 17 16
24 31 37 38 30 25 26 43 54 51 50 49 51 48 53 55 64 58 54 55 56 54 54 51 45 40 38 40 35 34 33 28 26 24 20 17 23 21 19 18 15 14 14 14 15 19 16
18 21 29 36 38 29 22 27 46 51 48 46 49 54 54 57 59 54 58 55 53 54 54 48 43 39 40 36 32 31 30 26 25 24 19 19 22 23 21 19 17 16 15 15 16 18 16
14 15 23 26 36 38 25 20 30 50 48 46 44 44 45 47 52 52 54 49 46 47 51 44 38 37 37 32 29 28 25 24 23 23 20 21 23 23 20 19 16 19 16 17 18 18 16
14 14 16 25 26 35 40 18 20 30 47 46 44 43 45 46 49 51 50 42 44 50 48 41 41 38 33 28 28 25 23 23 23 24 24 24 24 22 20 19 17 15 22 21 19 18 16
17 16 17 18 25 29 35 38 18 18 27 38 42 40 36 33 37 42 39 44 47 48 64 43 36 35 30 29 27 25 23 23 24 24 22 27 25 23 20 23 21 20 24 22 23 23 22
17 18 19 20 20 23 32 32 34 22 17 25 32 37 35 32 31 32 35 42 49 55 52 39 39 35 29 30 27 25 25 22 23 23 24 28 27 25 25 26 24 24 21 22 25 28 35
17 18 18 19 21 23 29 31 33 32 23 19 25 30 32 31 28 29 28 33 49 57 38 38 33 29 33 28 29 25 25 24 22 32 34 25 27 28 26 25 26 23 26 37 41 39 31
19 18 18 18 18 23 26 32 38 34 32 25 26 28 28 30 28 29 32 31 46 33 40 35 30 26 27 26 26 24 23 22 23 21 25 27 34 29 29 28 27 26 24 32 30 25 20
19 19 20 19 17 23 28 28 33 36 34 32 25 24 23 23 23 25 29 41 39 33 34 33 27 24 27 26 25 25 25 24 25 24 22 21 27 33 33 32 30 29 30 24 27 27 24
20 18 18 19 19 18 30 30 33 37 36 33 28 25 19 16 19 21 30 37 41 40 39 36 31 28 25 25 25 23 24 28 26 24 22 22 30 34 37 36 34 31 26 27 27 24 20
22 20 18 18 19 19 21 32 32 36 36 36 31 28 22 12 14 19 35 36 37 38 36 34 32 32 30 28 27 26 29 32 29 27 24 23 20 30 33 32 28 30 28 27 23 19 15
22 22 20 18 19 19 19 21 31 32 35 36 35 33 25 15 15 21 27 31 33 32 31 30 28 29 27 26 26 26 26 27 28 25 22 22 17 22 23 29 28 28 24 20 18 17 22
25 23 20 20 20 20 19 19 19 29 32 35 36 35 31 21 23 21 23 25 25 24 23 25 27 28 27 26 24 25 27 29 28 25 23 21 17 16 15 21 24 26 24 22 20 21 24
27 24 21 21 21 20 20 19 20 21 28 32 35 40 38 35 34 28 24 20 21 20 21 20 20 19 18 19 19 18 19 21 22 21 18 16 15 13 13 12 18 21 23 22 21 29 16
29 25 23 24 24 21 20 22 22 23 24 27 32 38 41 44 45 42 38 34 29 23 18 17 15 15 14 14 15 15 16 18 19 20 19 17 16 18 15 14 17 18 20 27 33 26 29
31 33 26 24 24 25 24 26 26 25 26 27 31 35 38 40 42 43 44 45 44 41 38 36 32 32 29 23 18 15 17 18 16 23 22 22 22 28 33 38 41 44 43 47 47 51 52
39 37 40 36 32 32 30 29 29 29 30 31 31 33 34 37 38 37 39 41 42 44 45 46 47 47 48 47 48 47 44 42 39 41 44 46 47 56 56 54 54 51 47 50 51 52 56
49 46 44 45 43 41 42 39 35 35 35 36 38 38 36 36 38 38 39 39 39 41 41 42 42 41 42 44 44 45 46 48 49 49 51 53 54 56 57 55 59 44 45 48 51 53 55
49 47 45 44 44 44 43 45 43 43 45 45 43 43 44 42 43 42 43 42 43 44 44 45 45 45 46 47 46 45 46 47 47 49 50 52 53 57 61 60 49 45 46 48 50 52 56
49 48 46 44 43 42 41 46 47 48 48 51 51 49 48 47 46 47 45 45 46 45 45 47 48 48 49 50 51 52 48 45 48 50 53 56 58 60 65 71 62 52 54 57 57 61 66
42 40 40 40 41 44 45 46 48 49 54 54 53 53 52 52 51 51 51 50 49 49 49 51 52 52 52 53 55 56 54 53 53 54 59 62 64 67 68 71 62 60 61 64 70 70 75
42 43 42 42 42 42 39 42 45 50 51 54 55 54 55 56 55 56 56 55 55 56 56 54 53 54 56 58 59 59 62 60 60 58 61 63 68 70 73 77 74 64 63 68 75 80 85
53 52 51 50 47 44 42 40 43 46 55 56 55 54 56 57 55 53 55 58 60 60 59 58 56 56 58 60 62 64 64 66 63 62 61 64 61 66 70 67 71 75 79 87 92 93 92